Location: Unspecified
(0.0000°N, 0.0000°E)
Time: 18:46:58
(UTC+00:00)

Vanguard 1 - All Passes

Search period start: 24 October 2014 00:00
Search period end: 03 November 2014 00:00
Orbit: 652 x 3835 km, 34.2° (Epoch: 22 October)

Date Brightness Start Highest point End Pass type
(mag) Time Alt. Az. Time Alt. Az. Time Alt. Az.
24 Oct - 00:45:13 10° SSW 00:59:35 22° SSE 01:09:46 10° ESE visible
24 Oct - 03:12:12 10° SW 03:26:51 48° SSE 03:34:49 10° ENE visible
24 Oct - 05:39:17 10° WSW 05:48:36 41° NW 05:54:10 10° NNE daylight
24 Oct - 15:12:55 10° NNW 15:21:58 52° NE 15:38:34 10° ESE daylight
24 Oct - 17:33:12 10° WNW 17:46:03 59° SSW 18:07:41 10° SE visible
24 Oct - 20:00:10 10° WSW 20:15:43 28° SSW 20:34:23 10° SSE visible
24 Oct - 22:35:57 10° SW 22:50:34 19° S 23:03:21 10° SE visible
25 Oct - 01:07:25 10° SSW 01:23:01 27° SSE 01:33:19 10° ESE visible
25 Oct - 03:34:09 10° SW 03:49:00 67° SSE 03:56:43 10° ENE visible
25 Oct - 06:02:37 10° W 06:09:53 25° NW 06:14:46 10° NNE daylight
25 Oct - 13:18:12 10° NNE 13:22:13 14° NE 13:27:22 10° ENE daylight
25 Oct - 15:34:03 10° NW 15:43:32 71° NE 16:01:34 10° ESE daylight
25 Oct - 17:55:32 10° W 18:08:42 47° SSW 18:29:40 10° SE visible
25 Oct - 20:24:36 10° WSW 20:39:45 24° SSW 20:56:50 10° SSE visible
25 Oct - 23:00:03 10° SW 23:15:06 20° S 23:27:35 10° SE visible
26 Oct - 01:29:24 10° SW 01:46:07 34° SSE 01:56:23 10° E visible
26 Oct - 03:56:21 10° SW 04:10:50 89° NW 04:18:18 10° NE visible
26 Oct - 06:26:59 10° WNW 06:31:14 15° NW 06:34:37 10° N daylight
26 Oct - 13:37:51 10° N 13:43:45 23° NE 13:52:38 10° E daylight
26 Oct - 15:55:26 10° NW 16:05:18 88° SW 16:24:10 10° SE daylight
26 Oct - 18:18:17 10° W 18:31:39 38° SSW 18:51:38 10° SE visible
26 Oct - 20:49:24 10° SW 21:04:09 21° S 21:19:49 10° SE visible
26 Oct - 23:23:17 10° SSW 23:39:21 22° SSE 23:51:52 10° ESE visible
27 Oct - 01:51:18 10° SW 02:08:53 44° SSE 02:18:59 10° E visible
27 Oct - 04:18:53 10° WSW 04:32:25 63° NW 04:39:34 10° NE visible
27 Oct - 13:58:18 10° NNW 14:05:08 35° NE 14:16:43 10° ESE daylight
27 Oct - 16:17:06 10° WNW 16:27:19 68° SW 16:46:26 10° SE daylight
27 Oct - 18:41:32 10° WSW 18:54:57 31° SSW 19:13:41 10° SE visible
27 Oct - 21:14:09 10° SW 21:28:49 20° S 21:43:31 10° SE visible
27 Oct - 23:45:53 10° SSW 00:03:13 27° SSE 00:15:53 10° ESE visible
28 Oct - 02:13:15 10° SW 02:31:22 57° SSE 02:41:10 10° ENE visible
28 Oct - 04:41:51 10° WSW 04:53:48 43° NW 05:00:34 10° NNE visible
28 Oct - 14:19:07 10° NNW 14:26:30 51° NE 14:40:04 10° ESE daylight
28 Oct - 16:39:04 10° WNW 16:49:38 53° SSW 17:08:30 10° SE daylight
28 Oct - 19:05:19 10° WSW 19:18:37 26° SSW 19:35:59 10° SSE visible
28 Oct - 21:38:25 10° SW 21:53:32 20° S 22:07:52 10° SE visible
29 Oct - 00:08:05 10° SW 00:26:43 32° SSE 00:39:24 10° E visible
29 Oct - 02:35:22 10° SW 02:53:32 75° SE 03:03:01 10° ENE visible
29 Oct - 05:05:26 10° W 05:15:08 28° NW 05:21:13 10° NNE visible
29 Oct - 12:25:35 10° NNE 12:27:28 11° NE 12:29:35 10° ENE daylight
29 Oct - 14:40:14 10° NW 14:47:58 73° NE 15:02:54 10° ESE daylight
29 Oct - 17:01:25 10° W 17:12:14 41° SSW 17:30:27 10° SE daylight
29 Oct - 19:29:32 10° SW 19:42:40 22° S 19:58:45 10° SSE visible
29 Oct - 22:01:58 10° SSW 22:18:07 22° S 22:32:33 10° SE visible
30 Oct - 00:30:06 10° SW 00:49:51 40° SSE 01:02:26 10° E visible
30 Oct - 02:57:44 10° SW 03:15:25 84° NW 03:24:33 10° NE visible
30 Oct - 05:29:53 10° W 05:36:32 18° NW 05:41:20 10° N daylight
30 Oct - 12:44:23 10° N 12:48:56 20° NE 12:55:18 10° E daylight
30 Oct - 15:01:38 10° WNW 15:09:40 82° SW 15:25:20 10° SE daylight
30 Oct - 17:24:11 10° W 17:35:10 33° SSW 17:52:24 10° SE daylight
30 Oct - 19:53:56 10° SW 20:07:04 20° S 20:22:13 10° SE visible
30 Oct - 22:24:49 10° SSW 22:42:23 25° SSE 22:57:08 10° ESE visible
31 Oct - 00:52:03 10° SW 01:12:39 50° SSE 01:25:00 10° ENE visible
31 Oct - 03:20:27 10° WSW 03:37:03 63° NW 03:45:49 10° NE visible
31 Oct - 05:57:06 10° NW 05:58:08 10° NW 05:59:07 10° NW daylight
31 Oct - 13:04:41 10° NNW 13:10:14 32° NE 13:19:10 10° ESE daylight
31 Oct - 15:23:19 10° WNW 15:31:38 61° SSW 15:47:27 10° SE daylight
31 Oct - 17:47:27 10° WSW 17:58:25 26° SSW 18:14:28 10° SSE visible
31 Oct - 20:18:09 10° SW 20:31:42 19° S 20:46:31 10° SE visible
31 Oct - 22:47:10 10° SSW 23:06:15 30° SSE 23:21:16 10° ESE visible
01 Nov - 01:14:04 10° SW 01:35:09 64° SSE 01:47:09 10° ENE visible
01 Nov - 03:43:37 10° WSW 03:58:31 45° NW 04:06:49 10° NNE visible
01 Nov - 13:25:28 10° NW 13:31:31 50° NE 13:42:16 10° ESE daylight
01 Nov - 15:45:20 10° W 15:53:55 45° SSW 16:09:23 10° SE daylight
01 Nov - 18:11:10 10° WSW 18:22:02 22° SSW 18:36:51 10° SSE visible
01 Nov - 20:41:47 10° SSW 20:56:22 20° S 21:11:29 10° SE visible
01 Nov - 23:09:13 10° SW 23:29:44 36° SSE 23:44:52 10° E visible
02 Nov - 01:36:16 10° SW 01:57:22 80° SE 02:08:58 10° ENE visible
02 Nov - 04:07:25 10° W 04:19:57 31° NW 04:27:33 10° NNE visible
02 Nov - 13:46:36 10° NW 13:52:57 77° NE 14:04:52 10° ESE daylight
02 Nov - 16:07:45 10° W 16:16:28 34° SSW 16:31:11 10° SE daylight
02 Nov - 18:35:14 10° SW 18:46:00 19° S 18:59:50 10° SSE visible
02 Nov - 21:04:45 10° SSW 21:20:51 23° SSE 21:36:40 10° ESE visible
02 Nov - 23:31:08 10° SW 23:52:51 45° SSE 00:00:00 34° ESE visible
